Regional Weather Roundup
Issued by NWS

Home | Current Version | Previous Version | Graphics & Text | Print | Product List | Glossary On
Versions: 1 2 3 4 5 6 7 8 9 10 11 12 13 14 15 16 17 18 19 20 21 22 23 24 25 26 27 28 29 30 31 32 33 34 35 36 37 38 39 40 41 42 43 44 45 46 47 48 49 50
000
ASUS45 KTFX 260110
RWRMT
MONTANA REGIONAL WEATHER ROUNDUP
NATIONAL WEATHER SERVICE GREAT FALLS MT
700 PM MDT FRI MAY 25 2018

NOTE: "FAIR" INDICATES FEW OR NO CLOUDS BELOW 12000 FEET WITH NO
SIGNIFICANT WEATHER AND/OR OBSTRUCTIONS TO VISIBILITY.

MTZ001>007-043-260200-
WEST OF THE DIVIDE

CITY           SKY/WX    TMP DP  RH WIND       PRES   REMARKS
KALISPELL      FAIR      78  51  38 S10G17    29.77F
MISSOULA       FAIR      75  57  53 NW7       29.77S
BUTTE          FAIR      62  46  55 S5        29.99R
MULLAN PASS    FAIR      65  44  46 VRB5      29.95F
ANACONDA         N/A     61  48  63 CALM      29.94S
DEER LODGE       N/A     61  48  63 MISG      29.94R
HAMILTON         N/A     70  48  46 MISG      29.84S
RONAN            N/A     77  50  38 MISG      29.79F
$$

MTZ008-052>055-260200-
SOUTHWEST MONTANA

CITY           SKY/WX    TMP DP  RH WIND       PRES   REMARKS
BOZEMAN        FAIR      69  50  50 SE8       29.89F
DILLON         FAIR      67  48  50 VRB5      29.90F
ENNIS          PTSUNNY   64  54  68 SW5       29.96F
W YELLOWSTONE  FAIR      70  34  26 CALM      29.99F
$$

MTZ009-010-012-014-046-048-049-054-260200-
EAST SLOPES AND CENTRAL MONTANA

CITY           SKY/WX    TMP DP  RH WIND       PRES   REMARKS
CUT BANK       FAIR      76  42  29 SW14      29.80F
GREAT FALLS    FAIR      80  45  28 SE7       29.81F
MALMSTROM AFB  FAIR      78  47  33 SW5       29.81F
HELENA         CLOUDY    69  54  58 S9        29.85S
CHOTEAU          N/A     77  45  31 E6        29.83F
WHITE SULPHUR    N/A     70  50  49 SE7       29.90F
$$

MTZ011-013-016-021-045-047-050-051-260200-
NORTH CENTRAL MONTANA

CITY           SKY/WX    TMP DP  RH WIND       PRES   REMARKS
HAVRE          FAIR      81  45  28 S10       29.74F
LEWISTOWN      FAIR      76  49  38 NE3       29.87F
N BAR RANCH    FAIR      73  50  43 SE5       29.92F
CHINOOK          N/A     82  52  34 S5        29.75
$$

MTZ017>020-022>027-061-062-260200-
NORTHEAST MONTANA

CITY           SKY/WX    TMP DP  RH WIND       PRES   REMARKS
GLASGOW        FAIR      85  47  26 W12       29.74F
GLENDIVE       FAIR      79  60  52 W6        29.79F
JORDAN           N/A     80  54  40 W5        29.79F
MALTA          SUNNY     82  45  26 SW9       29.73F
SIDNEY         FAIR      80  55  42 W8        29.74F
WOLF POINT     FAIR      82  52  35 SW7       29.74S
PLENTYWOOD       N/A     81  45  28 MISG      29.72S
POPLAR           N/A     79  54  41 W5        29.74S
$$

MTZ028>42-056>058-260200-
SOUTHCENTRAL AND SOUTHEAST MONTANA

CITY           SKY/WX    TMP DP  RH WIND       PRES   REMARKS
BAKER          FAIR      77  52  41 W8        29.84F
BILLINGS       FAIR      79  54  41 E7        29.85F
LIVINGSTON     FAIR      74  47  38 S7        29.89F
MILES CITY     FAIR      80  56  43 NW6       29.81F
BIG TIMBER     MOSUNNY   70  48  46 S10       29.91F
LAUREL           N/A     77  54  44 CALM      29.86S
$$

REGIONAL REPORTS...DAKOTAS

CITY           SKY/WX    TMP DP  RH WIND       PRES   REMARKS
WILLISTON      FAIR      84  46  26 W12G21    29.71F
MINOT          FAIR      86  43  22 W17G29    29.65F
DICKINSON      FAIR      81  46  29 W16       29.76F
BEACH          FAIR      79  48  34 W12G18    29.83F
CROSBY         FAIR      82  41  23 W21G28    29.68S
TIOGA          FAIR      82  43  24 W18G28    29.73S
WATFORD CITY   FAIR      84  46  26 W12G20    29.73S
BISMARCK       FAIR      87  50  27 W12       29.70R
GRAND FORKS    FAIR      89  48  24 W14       29.54S
FARGO          FAIR      86  54  33 N9G17     29.60R
BUFFALO SD       N/A     79  50  36 NW14      29.79S
RAPID CITY     FAIR      80  59  48 CALM      29.87F
$$

REGIONAL REPORTS...WYOMING/IDAHO/WASHINGTON

CITY           SKY/WX    TMP DP  RH WIND       PRES   REMARKS
GILLETTE       FAIR      81  49  32 NE3       29.91F
SHERIDAN       FAIR      79  52  38 CALM      29.89F
BUFFALO WY     FAIR      76  54  46 NW9       29.96S
CODY           FAIR      77  47  34 S12       29.93F
YELLOWSTONE LA   N/A     59  37  44 CALM      30.12F
IDAHO FALLS    FAIR      82  39  21 S9        29.85F
SALMON         FAIR      71  48  43 CALM      29.82F
BOISE          FAIR      83  52  34 NW12      29.66F
SPOKANE        FAIR      79  47  32 W10       29.79F
$$

REGIONAL REPORTS...ALBERTA

CITY           SKY/WX    TMP DP  RH WIND       PRES   REMARKS
CALGARY        PTSUNNY   81  39  22 S8        29.70F
CARDSTON         N/A     77  43  29 W5          N/A
EDMONTON       SUNNY     79  48  34 CALM      29.66F
FORT MCMURRAY  SUNNY     73  55  53 SE6       29.62S
HIGH LEVEL     MOSUNNY   73  34  23 CALM      29.61F
LETHBRIDGE     MOSUNNY   81  43  26 SW10G17   29.72F
LLOYDMINSTER   MOSUNNY   75  50  41 N8        29.70S
MEDICINE HAT   MOSUNNY   84  41  21 W3        29.70F
MILK RIVER       N/A     81  43  26 SW8         N/A
PEACE RIVER    MOSUNNY   73  32  21 W9        29.66F
PINCHER CREEK    N/A    N/A N/A N/A W14         N/A
WATERTON GATE    N/A     73  41  31 S10         N/A
$$

REGIONAL REPORTS...SASKATCHEWAN

CITY           SKY/WX    TMP DP  RH WIND       PRES   REMARKS
CORONACH         N/A     81  39  22 W17G23      N/A
CYPRESS HILLS    N/A     73  37  27 N6          N/A
ESTEVAN        MOSUNNY   82  45  26 NW26G33   29.66S
MOOSE JAW        N/A     79  46  31 NW20        N/A
PRINCE ALBERT  LGT RAIN  68  61  77 NW12      29.64R
REGINA         SUNNY     75  55  50 NW17      29.66S
ROCKGLEN         N/A     77  41  27 NW13G18     N/A
SASKATOON      MOSUNNY   73  55  53 NW17G23   29.68S
SWIFT CURRENT  SUNNY     81  39  22 NW18      29.72S
VAL MARIE        N/A     82  39  21 W9          N/A
$$



USA.gov is the U.S. government's official web portal to all federal, state and local government web resources and services.